Regional Weather Roundup
Issued by NWS

Home | Current Version | Previous Version | Text Only | Print | Product List | Glossary Off
Versions: 1 2 3 4 5 6 7 8 9 10 11 12 13 14 15 16 17 18 19 20 21 22 23 24 25 26 27 28 29 30 31 32 33 34 35 36 37 38 39 40 41 42 43 44 45 46 47 48 49 50

000
ASUS44 KMEG 261400
RWRTN
TENNESSEE HOURLY STATE WEATHER ROUNDUP
NATIONAL WEATHER SERVICE MEMPHIS TN
800 AM CST MON JAN 26 2015

TNZ002-004-019-021-049-052-054-088>092-261500-
WEST TENNESSEE

CITY           SKY/WX    TMP DP  RH WIND       PRES   REMARKS
MEMPHIS INTL   MOCLDY    38  28  67 N6        30.09S WCI  33
NWS MEMPHIS      N/A     37 N/A N/A MISG        N/A
JACKSON        PTSUNNY   33  26  75 NW9       30.05F WCI  25
DYERSBURG      CLEAR     32  18  55 W3        30.09R
UNION CITY     CLEAR     28  27  93 NW8       30.04S WCI  20
PARIS          CLOUDY    28  23  80 NW10      30.02F WCI  19
LEXINGTON      CLOUDY    34  27  75 NW9       30.01S WCI  26
SAVANNAH       CLOUDY    34  28  80 N9        30.04S WCI  26
$$

TNZ008-025-027-028-033-062-065-066-261500-
NORTH MIDDLE TENNESSEE

CITY           SKY/WX    TMP DP  RH WIND       PRES   REMARKS
NASHVILLE      CLOUDY    33  28  81 NW9       29.98R WCI  25
CLARKSVILLE    CLOUDY    32  28  85 NW16G22   30.00R WCI  21
COOKEVILLE     CLOUDY    30  30 100 NW10      29.89R WCI  21
CROSSVILLE     FOG       31  29  92 NW14G25   29.83R VSB 1/2 WCI  21
$$

TNZ061-075-076-078-094-096-097-261500-
SOUTH MIDDLE TENNESSEE

CITY           SKY/WX    TMP DP  RH WIND       PRES   REMARKS
FAYETTEVILLE   CLOUDY    30  28  93 MISG      29.94R
TULLAHOMA      CLOUDY    30  28  93 NW15      29.94R WCI  19
WINCHESTER     CLOUDY    32  30  93 NW12      29.93R WCI  23
MCMINNVILLE    CLOUDY    30  30 100 NW8       29.91R WCI  23
SHELBYVILLE    CLOUDY    34  30  86 NW12      29.97R WCI  25
$$

TNZ017-018-042-046-047-261500-
NORTHEAST TENNESSEE

CITY           SKY/WX    TMP DP  RH WIND       PRES   REMARKS
TRI CITIES     LGT RAIN  39  37  92 W10       29.69R WCI  32
ELIZABETHTON   LGT RAIN  36  36 100 W8        29.68R FOG     WCI  29
$$

TNZ012-013-036-069-073-074-261500-
CENTRAL EAST TENNESSEE

CITY           SKY/WX    TMP DP  RH WIND       PRES   REMARKS
KNOXVILLE      CLOUDY    39  35  86 W16       29.78R WCI  30
OAK RIDGE      CLOUDY    40  35  83 W6        29.80R
GATLINBURG     CLOUDY    39  34  81 W12       29.76R WCI  32
$$

TNZ083-085-099-261500-
SOUTHEAST TENNESSEE

CITY           SKY/WX    TMP DP  RH WIND       PRES   REMARKS
CHATTANOOGA    CLOUDY    39  32  76 NW18G24   29.87R WCI  30
$$

SKY/WX REPORTED AS FAIR MEANS FEW OR NO CLOUDS BELOW
12 THOUSAND FEET.




USA.gov is the U.S. government's official web portal to all federal, state and local government web resources and services.